Location: Tamazert
(32.6352°N, 5.2072°W)
Time: 16:55:31
(UTC+00:00)

Cosmos 1455 - Pass Details

Date: 22 May 2022
Orbit: 492 x 515 km, 82.5° (Epoch: 28 June)

Event Time Altitude Azimuth Distance (km) Brightness Sun altitude
Rises 03:39:26 0° 339° (NNW) 2,575 6.0 -18.3°
Reaches altitude 10° 03:41:46 10° 327° (NNW) 1,688 4.9 -18.0°
Enters shadow 03:44:12 24° 288° (WNW) 1,040 3.4 -17.6°
